[[{"header":{"parameterUnit":"m.s-1","parameterCategory":1,"la1":30.2991,"la2":30.254,"lo1":-89.0895,"lo2":-89.0444,"dy":0.0017,"dx":0.0017,"nx":28,"ny":28,"refTime":"2024-10-03T03:00:00:Z","depth":0,"parameterNumber":2,"parameterNumberName":"U-component_of_WINDS"},"data":[0,0,0,0,0,0,0,0,0,0,0,0,0,0,0,0,0,0,0,0,0,0,0,0,0,0,0,0,0,0,0,0,0,0,0,0,0,0,0,0,0,0,0,0,0,0,0,0,0,0,0,0,0,0,0,0,0,0,-5.0865,-5.0865,0,-5.0882,-5.0882,-5.0882,-5.0789,-5.0787,-5.0784,-5.0781,-5.0798,-5.0801,-5.0804,0,0,0,0,0,0,0,0,0,0,0,0,0,-5.075,-5.0752,-5.0865,-5.0865,-5.0865,-5.0882,-5.0882,-5.0882,-5.079,-5.0786,-5.0783,-5.078,-5.0797,-5.08,-5.0804,0,0,0,0,0,0,0,0,0,0,0,0,0,-5.0787,-5.0753,-5.0865,-5.0821,-5.0817,-5.0882,-5.0882,-5.0882,-5.079,-5.0786,-5.0782,-5.0779,-5.0796,-5.08,-5.0804,-5.0911,0,0,-5.0818,-5.082,0,0,0,0,0,0,0,0,-5.0785,-5.0791,-5.0827,-5.0824,-5.082,-5.0829,-5.0847,-5.0892,-5.0791,-5.0801,-5.0781,-5.0777,-5.0811,-5.0814,-5.0826,-5.0912,-5.0913,-5.0818,-5.0821,-5.0823,-5.0824,0,0,0,0,0,0,0,-5.0782,-5.079,-5.0872,-5.0828,-5.0824,-5.08,-5.0801,-5.0856,-5.0828,-5.0799,-5.0793,-5.0796,-5.0809,-5.0822,-5.0826,-5.0913,-5.0818,-5.0822,-5.0825,-5.0826,-5.1084,-5.1088,0,0,0,0,0,0,-5.0786,-5.0788,-5.0871,-5.0872,-5.0792,-5.0805,-5.0806,-5.083,-5.0827,-5.0823,-5.08,-5.0792,-5.0817,-5.0821,-5.0826,-5.0948,-5.0823,-5.0827,-5.0829,-5.108,-5.1085,-5.109,0,0,0,0,0,0,-5.0784,-5.0794,-5.087,-5.0828,-5.0836,-5.0811,-5.084,-5.0833,-5.0846,-5.0827,-5.0822,-5.0818,-5.0814,-5.082,-5.089,-5.0947,-5.0829,-5.0833,-5.1075,-5.1082,-5.1087,-5.1195,0,0,0,0,0,0,-5.0781,-5.0794,-5.0835,-5.083,-5.0839,-5.0935,-5.0843,-5.0836,-5.0854,-5.0844,-5.0844,-5.084,-5.0811,-5.0884,-5.0895,-5.0951,-5.0836,-5.107,-5.1078,-5.1085,-5.1186,-5.1204,-5.1219,0,0,0,0,0,-5.0777,-5.0865,-5.0837,-5.0848,-5.089,-5.0938,-5.0943,-5.0909,-5.0859,-5.0899,-5.0887,-5.084,-5.0941,-5.0892,-5.0903,-5.0962,-5.1066,-5.1076,-5.1085,-5.1178,-5.12,-5.1219,0,0,0,0,0,0,-5.0877,-5.0863,-5.0833,-5.0922,-5.0932,-5.0923,-5.0972,-5.0934,-5.0958,-5.0947,-5.0904,-5.0904,-5.0981,-5.0979,-5.0926,-5.1064,-5.0994,-5.1006,-5.1062,-5.1082,-5.1099,-5.1096,-5.084,0,0,0,0,0,-5.091,-5.0951,-5.0937,-5.1017,-5.1023,-5.0998,-5.1017,-5.099,-5.0998,-5.1002,-5.0995,-5.1005,-5.1038,-5.1061,-5.1091,-5.1187,-5.1183,-5.1233,-5.1249,-5.1263,-5.1273,-5.132,-5.134,-5.1121,-5.1121,-5.1121,0,0,-5.0977,-5.0975,-5.1003,-5.1037,-5.1041,-5.1083,-5.1001,-5.1051,-5.1081,-5.1009,-5.1074,-5.107,-5.1077,-5.116,-5.1196,-5.1161,-5.1333,-5.1275,-5.1286,-5.1288,-5.1332,-5.1353,-5.1371,-5.1127,-5.1126,-5.1125,0,0,-5.112,-5.1124,-5.1189,-5.1195,-5.1203,-5.1185,-5.1201,-5.1198,-5.1192,-5.1256,-5.1203,-5.1239,-5.1298,-5.1305,-5.1316,-5.1462,-5.1418,-5.1473,-5.1559,-5.1605,-5.1623,-5.1638,-5.1686,-5.1704,-5.1484,-5.1484,-5.1484,0,-5.1202,-5.1264,-5.1228,-5.1279,-5.1294,-5.1233,-5.1297,-5.1305,-5.1322,-5.1334,-5.1294,-5.1366,-5.1367,-5.1449,-5.1484,-5.1497,-5.1511,-5.1471,-5.1623,-5.1638,-5.1651,-5.1697,-5.1715,-5.149,-5.149,-5.1489,-5.1488,0,-5.1363,-5.1407,-5.1459,-5.1476,-5.1497,-5.1556,-5.1527,-5.1553,-5.1524,-5.151,-5.1575,-5.1575,-5.1602,-5.1621,-5.1594,-5.1698,-5.1675,-5.1631,-5.1559,-5.1679,-5.1721,-5.1738,-5.1499,-5.1497,-5.1495,-5.1494,0,0,-5.1567,-5.1564,-5.1583,-5.1589,-5.1593,-5.1625,-5.1681,-5.1707,-5.1729,-5.1744,-5.1787,-5.1838,-5.1796,-5.1809,-5.1783,-5.1824,-5.1935,-5.1774,-5.1773,-5.18,-5.2046,-5.2076,-5.2097,-5.1908,-5.1911,-5.1914,-5.2044,0,-5.1704,-5.1797,-5.1765,-5.1859,-5.1897,-5.1839,-5.1886,-5.1894,-5.1882,-5.1913,-5.19,-5.1936,-5.188,-5.1887,-5.1926,-5.1913,-5.1983,-5.1904,-5.1944,-5.1946,-5.194,-5.2119,-5.2152,-5.2275,-5.206,-5.2063,-5.2065,0,-5.1875,-5.1895,-5.1993,-5.1988,-5.2003,-5.2046,-5.2066,-5.2098,-5.2104,-5.2093,-5.2107,-5.2071,-5.2123,-5.2055,-5.2125,-5.2072,-5.2087,-5.2084,-5.2088,-5.2086,-5.201,-5.2119,-5.2313,-5.233,-5.2091,-5.2089,-5.2087,0,-5.2009,-5.2061,-5.2125,-5.2133,-5.213,-5.2161,-5.2162,-5.2164,-5.2182,-5.22,-5.221,-5.2236,-5.2249,-5.2268,-5.224,-5.2193,-5.2312,-5.2243,-5.2302,-5.2303,-5.2326,-5.2324,-5.2521,-5.2344,-5.2344,-5.2343,-5.2343,0,-5.2162,-5.2223,-5.2185,-5.2224,-5.229,-5.2253,-5.2319,-5.2313,-5.2316,-5.2352,-5.2305,-5.234,-5.2302,-5.2333,-5.2311,-5.237,-5.2378,-5.2368,-5.2361,-5.237,-5.237,-5.2376,-5.2365,-5.2348,-5.2347,-5.2346,-5.2345,0,-5.2321,-5.2299,-5.2364,-5.2356,-5.2355,-5.2404,-5.2396,-5.2432,-5.2417,-5.2463,-5.2472,-5.2449,-5.2483,-5.2458,-5.2492,-5.2477,-5.2553,-5.2537,-5.2551,-5.2544,-5.2603,-5.2597,-5.2807,-5.2832,-5.2643,-5.2645,-5.2646,0,-5.2419,-5.2464,-5.246,-5.2481,-5.2484,-5.2518,-5.2535,-5.2501,-5.2521,-5.2531,-5.2564,-5.2594,-5.2616,-5.2672,-5.2658,-5.2684,-5.2664,-5.2736,-5.2667,-5.2674,-5.266,-5.2656,-5.2658,-5.2749,-5.2751,-5.2753,-5.2754,0,-5.2592,-5.2578,-5.2605,-5.2627,-5.2649,-5.2665,-5.2677,-5.2697,-5.2662,-5.2687,-5.272,-5.2737,-5.2771,-5.28,-5.282,-5.2819,-5.278,-5.2777,-5.2791,-5.2798,-5.2803,-5.2797,-5.2584,-5.2771,-5.2769,-5.2768,-5.2767,-5.2767,-5.272,-5.2756,-5.2758,-5.2789,-5.2795,-5.2807,-5.2838,-5.2828,-5.2855,-5.2879,-5.2859,-5.2898,-5.2902,-5.2925,-5.2929,-5.2959,-5.2929,-5.2951,-5.2956,-5.296,-5.2967,-5.2802,-5.2963,-5.2963,-5.2962,-5.2962,-5.2962,0,-5.2887,-5.2886,-5.2914,-5.2932,-5.2956,-5.2919,-5.293,-5.2952,-5.2987,-5.2994,-5.3016,-5.3054,-5.3082,-5.3071,-5.3095,-5.3121,-5.3103,-5.3128,-5.3123,-5.3123,-5.2994,-5.2977,-5.3141,-5.3141,-5.3141,-5.3141,-5.3141,-5.3141,-5.2977,-5.3034,-5.3021,-5.3081,-5.3079,-5.3116,-5.3126,-5.3136,-5.3141,-5.3185,-5.3208,-5.32,-5.32,-5.3223,-5.3247,-5.3243,-5.3252,-5.3282,-5.3271,-5.315,-5.3132,-5.3115,-5.3099,-5.3286,-5.3286,-5.3397,-5.3398,-5.3398]},{"header":{"parameterUnit":"m.s-1","parameterCategory":1,"la1":30.2991,"la2":30.254,"lo1":-89.0895,"lo2":-89.0444,"dy":0.0017,"dx":0.0017,"nx":28,"ny":28,"refTime":"2024-10-03T03:00:00:Z","depth":0,"parameterNumber":3,"parameterNumberName":"V-component_of_WINDS"},"data":[0,0,0,0,0,0,0,0,0,0,0,0,0,0,0,0,0,0,0,0,0,0,0,0,0,0,0,0,0,0,0,0,0,0,0,0,0,0,0,0,0,0,0,0,0,0,0,0,0,0,0,0,0,0,0,0,0,0,0.8659,0.8658,0,0.857,0.8569,0.8568,0.856,0.8561,0.8562,0.8562,0.8462,0.8458,0.8455,0,0,0,0,0,0,0,0,0,0,0,0,0,0.8813,0.881,0.8659,0.8658,0.8656,0.857,0.8569,0.8567,0.8559,0.8561,0.8562,0.8563,0.8463,0.8459,0.8454,0,0,0,0,0,0,0,0,0,0,0,0,0,0.8737,0.8809,0.8659,0.8642,0.864,0.857,0.8569,0.8567,0.8559,0.8561,0.8562,0.8563,0.8464,0.8459,0.8454,0.8391,0,0,0.8437,0.8435,0,0,0,0,0,0,0,0,0.8741,0.8731,0.8646,0.8643,0.8641,0.8578,0.8586,0.8508,0.8559,0.859,0.8563,0.8564,0.8498,0.849,0.847,0.8387,0.8382,0.8437,0.8434,0.8431,0.843,0,0,0,0,0,0,0,0.8746,0.8735,0.8623,0.8645,0.8641,0.8636,0.8627,0.8571,0.8536,0.8587,0.8586,0.8576,0.8497,0.8475,0.8468,0.8381,0.8437,0.8432,0.8429,0.8427,0.824,0.8239,0,0,0,0,0,0,0.8756,0.8739,0.8626,0.8621,0.8696,0.8632,0.8622,0.8596,0.8537,0.853,0.8575,0.8576,0.8484,0.8474,0.8464,0.8386,0.8431,0.8426,0.8423,0.8242,0.824,0.8238,0,0,0,0,0,0,0.8759,0.8746,0.863,0.868,0.8665,0.8628,0.8599,0.8594,0.8572,0.8529,0.8521,0.856,0.8485,0.8472,0.841,0.8383,0.8424,0.8419,0.8244,0.8241,0.8239,0.8231,0,0,0,0,0,0,0.8764,0.8747,0.8725,0.8679,0.8662,0.858,0.8597,0.8591,0.8564,0.8564,0.8512,0.8505,0.8485,0.8418,0.8405,0.8376,0.8415,0.8246,0.8243,0.824,0.8233,0.8228,0.8224,0,0,0,0,0,0.8769,0.8725,0.8724,0.8711,0.8634,0.8578,0.8568,0.8548,0.8562,0.8538,0.851,0.8506,0.8389,0.8412,0.8397,0.8366,0.8248,0.8244,0.824,0.8235,0.8229,0.8224,0,0,0,0,0,0,0.8765,0.8718,0.8717,0.8657,0.8622,0.8577,0.8546,0.8543,0.8501,0.8502,0.8477,0.8466,0.8404,0.8379,0.8406,0.8302,0.8319,0.8312,0.8321,0.8314,0.831,0.8316,0.841,0,0,0,0,0,0.8758,0.8719,0.8679,0.863,0.8612,0.8583,0.8557,0.8546,0.8507,0.8491,0.8459,0.8419,0.8372,0.8342,0.8297,0.823,0.8217,0.8201,0.8197,0.8193,0.8187,0.8148,0.814,0.8225,0.8225,0.8225,0,0,0.874,0.871,0.8687,0.8628,0.8599,0.8557,0.857,0.8525,0.8492,0.8483,0.8424,0.8398,0.8352,0.8287,0.8257,0.8264,0.8161,0.8188,0.8186,0.8181,0.8143,0.8135,0.8128,0.8223,0.8223,0.8224,0,0,0.8688,0.8663,0.8618,0.859,0.8548,0.8528,0.8518,0.8474,0.8457,0.8398,0.839,0.835,0.8271,0.8238,0.8211,0.8147,0.8141,0.8132,0.8107,0.8069,0.8063,0.8057,0.8032,0.8024,0.8126,0.8126,0.8126,0,0.8671,0.8611,0.8595,0.855,0.8524,0.8517,0.8471,0.8443,0.8387,0.8367,0.8377,0.8278,0.8246,0.8173,0.8158,0.8137,0.8121,0.8137,0.8066,0.8059,0.8053,0.8029,0.802,0.8126,0.8126,0.8126,0.8126,0,0.8591,0.8549,0.8518,0.8467,0.8437,0.8391,0.8366,0.8337,0.8328,0.8307,0.8245,0.8207,0.8154,0.8136,0.8126,0.8061,0.8067,0.8071,0.8088,0.8044,0.8021,0.8012,0.8124,0.8125,0.8125,0.8125,0,0,0.8532,0.8475,0.8464,0.844,0.8394,0.8359,0.8312,0.8264,0.8238,0.82,0.8158,0.8092,0.8096,0.8066,0.8051,0.8019,0.7968,0.8027,0.8025,0.8016,0.7892,0.7888,0.7878,0.7965,0.7964,0.7962,0.7896,0,0.8473,0.8393,0.8378,0.8307,0.8266,0.826,0.8219,0.8184,0.8163,0.8123,0.8098,0.8052,0.8062,0.8043,0.801,0.7982,0.7943,0.7986,0.7923,0.7921,0.7934,0.7866,0.7861,0.78,0.7887,0.7885,0.7884,0,0.8394,0.8357,0.8283,0.8241,0.8224,0.8187,0.8141,0.8104,0.8064,0.805,0.8017,0.8006,0.7954,0.7975,0.7901,0.7931,0.7905,0.7886,0.7883,0.7875,0.7899,0.7854,0.7781,0.7771,0.787,0.7871,0.7872,0,0.8356,0.8287,0.8234,0.8215,0.8165,0.814,0.8117,0.8079,0.8051,0.8009,0.799,0.7942,0.7915,0.7877,0.7853,0.787,0.778,0.7799,0.7765,0.7766,0.7745,0.7746,0.7664,0.7731,0.7731,0.7731,0.7731,0,0.8291,0.8246,0.8217,0.8184,0.8132,0.8114,0.8062,0.8039,0.8005,0.7965,0.7956,0.7918,0.7889,0.7846,0.7827,0.7768,0.7756,0.7742,0.7737,0.7742,0.7743,0.7722,0.7725,0.7729,0.7729,0.773,0.773,0,0.824,0.8219,0.8161,0.812,0.8108,0.8072,0.8035,0.8001,0.7981,0.793,0.7917,0.7883,0.7833,0.7806,0.7741,0.7728,0.7661,0.7659,0.7676,0.7673,0.764,0.7643,0.7541,0.7525,0.7603,0.7603,0.7602,0,0.8199,0.8165,0.8121,0.8095,0.8073,0.8032,0.8004,0.7984,0.7954,0.7906,0.7877,0.7827,0.7785,0.7704,0.7671,0.7622,0.7617,0.7585,0.7609,0.7615,0.7614,0.7616,0.7612,0.758,0.7579,0.7578,0.7578,0,0.8129,0.812,0.8082,0.804,0.8007,0.7972,0.7937,0.7915,0.7889,0.7856,0.7806,0.7774,0.771,0.7658,0.7607,0.758,0.7573,0.7571,0.756,0.7564,0.7574,0.7567,0.7662,0.7573,0.7573,0.7574,0.7574,0.7574,0.808,0.8049,0.8014,0.797,0.7943,0.791,0.7877,0.7853,0.7812,0.776,0.775,0.7696,0.7655,0.7585,0.7557,0.7513,0.7519,0.7504,0.7499,0.7496,0.7494,0.7583,0.7503,0.7503,0.7504,0.7504,0.7504,0,0.8008,0.7985,0.7946,0.7899,0.7864,0.7866,0.7827,0.7797,0.7751,0.7715,0.7675,0.7616,0.7567,0.7531,0.748,0.7451,0.7447,0.7438,0.7439,0.7433,0.7492,0.7506,0.7443,0.7443,0.7443,0.7443,0.7443,0.7443,0.7966,0.7913,0.79,0.7832,0.7809,0.7759,0.7737,0.7706,0.7677,0.7613,0.7573,0.7552,0.7515,0.7461,0.7415,0.7405,0.7386,0.7377,0.7367,0.7422,0.7429,0.7435,0.7448,0.7374,0.7374,0.7312,0.7311,0.7311]}]]